Find Starlink 31675

NORAD ID: 59548 Int'l Des: 2024-074 Owner: SPXS Country: US Constellation: starlink operational
LEOCIRCULAR

Current View

Loading 3D Globe...

About Starlink 31675

Starlink 31675 (NORAD 59548) is a starlink constellation satellite (v2 mini) launched Apr 18, 2024 by SPXS of US. It operates in LEO, CIRCULAR orbit with a mass of 730.00 kg.

Upcoming Passes

Passes for default location (London). Set your location on the main map for personalized predictions.

Altitude History

Loading altitude history...

Two-Line Element Set

1 59548U 24074Q 26263.45938916 .00003396 00000-0 13290-3 0 9991
2 59548 43.0012 323.4120 0000881 274.4877 85.5873 15.27574329135802
Epoch: Sep 20, 2026 • Age: 9 hours

Current Status

Altitude 493.6 km
Apogee / Perigee N/A
Velocity 7.62 km/s
Sub-Earth Point -37.55°S, 102.29°W
Launch Date Apr 18, 2024
Age 2.4 years
Type internet

Technical Details

Classification Payload
Mass 730.00 kg
Dry Mass 700.00 kg
Length 0.30 m
Span 29.00 m
Shape ? Box + pan
Manufacturer SPXS
Bus Type Starlink V2M
Phase Status In Orbit
Owner/State SPXS/US

Most Searched